Aurora, NE

4:00 PM CDT on August 28, 2016 (GMT -0500)
Aurora Municipal

Weather History for KAUH - October, 2012

Change the Weather History Date:

Wednesday, October 17, 2012

  Actual Average Record
Temperature  
Mean Temperature 58 °F -  
Max Temperature 69 °F 64 °F 83 °F (1991)
Min Temperature 47 °F 39 °F 24 °F (1976)
Degree Days  
Heating Degree Days 7    
Growing Degree Days 8 (Base 50)    
Moisture  
Dew Point 31 °F    
Average Humidity 40    
Maximum Humidity 82    
Minimum Humidity 17    
Precipitation  
Precipitation 0.01 in - - ()
Sea Level Pressure  
Sea Level Pressure 29.57 in    
Wind  
Wind Speed 20 mph (WNW)    
Max Wind Speed 39 mph    
Max Gust Speed 48 mph    
Visibility 10 miles    
Events Rain    
Averages and records for this station are not official NWS values.
T = Trace of Precipitation, MM = Missing Value Source: NWS Daily Summary

Daily Weather History Graph

Daily Weather History Graph

Search for Another Location

Airport or City:

Trip Planner

Search our weather history database for the weather conditions in past years. The results will help you decide how hot, cold, wet, or windy it might be!

Date:

Astronomy

Oct. 17, 2012 Rise Set
Actual Time 7:46 AM CDT 6:47 PM CDT
Civil Twilight 7:18 AM CDT 7:15 PM CDT
Nautical Twilight 6:46 AM CDT 7:47 PM CDT
Astronomical Twilight 6:14 AM CDT 8:18 PM CDT
Moon 10:23 AM CDT (10/17) 8:23 PM CDT (10/17)
Length of Visible Light 11h 57m
Length of Day
11h 01m
Waxing Crescent, 7% of the Moon is Illuminated
Oct 17
Waxing Crescent
Oct 21
First Quarter
Oct 29
Full
Nov 6
Last Quarter
Nov 13
New

Hourly Weather History & Observations

Time (CDT) Temp. Dew Point Humidity Pressure Visibility Wind Dir Wind Speed Gust Speed Precip Events Conditions
12:15 AM 64.6 °F 44.6 °F 48% 29.40 in 10.0 mi SSW 11.5 mph - N/A   Scattered Clouds
12:35 AM 65.5 °F 44.2 °F 46% 29.39 in 10.0 mi SSW 10.4 mph - N/A   Scattered Clouds
12:55 AM 65.7 °F 44.2 °F 46% 29.39 in 10.0 mi SSW 12.7 mph 19.6 mph N/A   Clear
1:15 AM 65.3 °F 44.4 °F 47% 29.38 in 10.0 mi SSW 11.5 mph - N/A   Clear
1:35 AM 65.5 °F 44.2 °F 46% 29.38 in 10.0 mi SSW 13.8 mph 17.3 mph N/A   Clear
1:55 AM 65.7 °F 44.2 °F 46% 29.39 in 10.0 mi SW 15.0 mph - N/A   Clear
2:15 AM 66.4 °F 43.7 °F 44% 29.38 in 10.0 mi SW 13.8 mph - N/A   Clear
2:35 AM 68.0 °F 43.0 °F 40% 29.39 in 10.0 mi WSW 18.4 mph 23.0 mph N/A   Clear
2:55 AM 66.7 °F 43.0 °F 42% 29.39 in 10.0 mi WSW 17.3 mph 23.0 mph N/A   Clear
3:15 AM 68.0 °F 42.1 °F 39% 29.39 in 10.0 mi West 25.3 mph 28.8 mph N/A   Clear
3:35 AM 69.1 °F 42.4 °F 38% 29.42 in 10.0 mi WNW 34.5 mph 40.3 mph N/A   Clear
3:55 AM 63.5 °F 46.4 °F 54% 29.43 in 7.0 mi NW 29.9 mph 38.0 mph N/A   Scattered Clouds
4:15 AM 61.0 °F 45.3 °F 56% 29.45 in 10.0 mi NW 23.0 mph 33.4 mph N/A   Scattered Clouds
4:35 AM 60.1 °F 44.6 °F 57% 29.45 in 10.0 mi NW 23.0 mph 28.8 mph N/A   Mostly Cloudy
4:55 AM 59.9 °F 44.2 °F 56% 29.47 in 10.0 mi NW 23.0 mph 27.6 mph N/A   Overcast
5:15 AM 57.4 °F 47.1 °F 69% 29.48 in 10.0 mi NW 19.6 mph 34.5 mph N/A Rain Rain
5:35 AM 54.5 °F 49.1 °F 82% 29.50 in 10.0 mi NW 19.6 mph 24.2 mph N/A Rain Rain
5:55 AM 54.1 °F 48.7 °F 82% 29.49 in 10.0 mi NW 17.3 mph - 0.01 in   Mostly Cloudy
6:15 AM 54.3 °F 48.2 °F 80% 29.48 in 10.0 mi NW 18.4 mph - N/A   Clear
6:35 AM 54.5 °F 47.5 °F 77% 29.50 in 10.0 mi NW 19.6 mph 24.2 mph N/A   Scattered Clouds
6:55 AM 54.3 °F 46.6 °F 75% 29.50 in 10.0 mi NW 18.4 mph 24.2 mph N/A   Scattered Clouds
7:15 AM 54.0 °F 46.4 °F 76% 29.51 in 10.0 mi NW 16.1 mph - N/A   Scattered Clouds
7:35 AM 53.6 °F 45.9 °F 75% 29.51 in 10.0 mi NW 16.1 mph 21.9 mph N/A   Scattered Clouds
7:55 AM 54.0 °F 42.6 °F 65% 29.53 in 10.0 mi NW 20.7 mph 31.1 mph N/A   Scattered Clouds
8:15 AM 52.9 °F 39.6 °F 61% 29.54 in 10.0 mi NW 19.6 mph 25.3 mph N/A   Scattered Clouds
8:35 AM 52.5 °F 39.9 °F 62% 29.55 in 10.0 mi NW 17.3 mph 23.0 mph N/A   Scattered Clouds
8:55 AM 52.7 °F 37.9 °F 57% 29.57 in 10.0 mi NW 17.3 mph 25.3 mph N/A   Scattered Clouds
9:15 AM 52.9 °F 36.9 °F 55% 29.58 in 10.0 mi NW 18.4 mph - N/A   Clear
9:35 AM 56.5 °F 35.2 °F 45% 29.59 in 10.0 mi NW 27.6 mph 34.5 mph N/A   Clear
9:55 AM 56.1 °F 34.7 °F 45% 29.60 in 10.0 mi NW 23.0 mph 29.9 mph N/A   Scattered Clouds
10:15 AM 57.2 °F 31.1 °F 37% 29.60 in 10.0 mi NW 29.9 mph 40.3 mph N/A   Scattered Clouds
10:35 AM 58.3 °F 30.4 °F 35% 29.61 in 10.0 mi NNW 35.7 mph 43.7 mph N/A   Clear
10:55 AM 57.2 °F 29.5 °F 35% 29.61 in 10.0 mi NW 33.4 mph 40.3 mph N/A   Clear
11:15 AM 58.6 °F 29.5 °F 33% 29.61 in 10.0 mi NW 29.9 mph 42.6 mph N/A   Clear
11:35 AM 57.7 °F 30.0 °F 35% 29.62 in 10.0 mi NW 33.4 mph 39.1 mph N/A   Clear
11:55 AM 57.9 °F 31.3 °F 36% 29.62 in 10.0 mi NW 27.6 mph 42.6 mph N/A   Clear
12:15 PM 59.0 °F 31.3 °F 35% 29.63 in 10.0 mi NW 36.8 mph 43.7 mph N/A   Scattered Clouds
12:35 PM 59.0 °F 31.3 °F 35% 29.62 in 10.0 mi NW 35.7 mph 46.0 mph N/A   Scattered Clouds
12:55 PM 60.1 °F 31.5 °F 34% 29.62 in 10.0 mi NNW 38.0 mph 48.3 mph N/A   Scattered Clouds
1:15 PM 59.2 °F 30.4 °F 34% 29.62 in 10.0 mi NW 35.7 mph 47.2 mph N/A   Scattered Clouds
1:35 PM 59.9 °F 29.5 °F 32% 29.62 in 10.0 mi NW 39.1 mph 47.2 mph N/A   Scattered Clouds
1:55 PM 60.3 °F 28.4 °F 30% 29.61 in 10.0 mi NW 35.7 mph 42.6 mph N/A   Scattered Clouds
2:15 PM 59.9 °F 27.9 °F 30% 29.60 in 10.0 mi NW 28.8 mph 42.6 mph N/A   Scattered Clouds
2:35 PM 60.6 °F 26.4 °F 27% 29.60 in 10.0 mi NW 32.2 mph 42.6 mph N/A   Scattered Clouds
2:55 PM 61.2 °F 22.6 °F 23% 29.60 in 10.0 mi NW 33.4 mph 43.7 mph N/A   Clear
3:15 PM 62.2 °F 21.2 °F 21% 29.60 in 10.0 mi NW 31.1 mph 42.6 mph N/A   Mostly Cloudy
3:35 PM 61.9 °F 18.3 °F 19% 29.61 in 10.0 mi NNW 35.7 mph 43.7 mph N/A   Scattered Clouds
3:55 PM 61.5 °F 15.4 °F 17% 29.61 in 10.0 mi NNW 33.4 mph 44.9 mph N/A   Clear
4:15 PM 61.7 °F 16.5 °F 17% 29.61 in 10.0 mi NW 35.7 mph 46.0 mph N/A   Clear
4:35 PM 61.7 °F 16.7 °F 17% 29.61 in 10.0 mi NW 29.9 mph 38.0 mph N/A   Clear
4:55 PM 61.0 °F 16.5 °F 18% 29.63 in 10.0 mi NW 34.5 mph 42.6 mph N/A   Clear
5:15 PM 60.8 °F 15.8 °F 17% 29.63 in 10.0 mi NW 26.5 mph 44.9 mph N/A   Scattered Clouds
5:35 PM 60.3 °F 14.7 °F 17% 29.64 in 10.0 mi NW 20.7 mph 31.1 mph N/A   Clear
5:55 PM 59.2 °F 15.6 °F 18% 29.64 in 10.0 mi NW 31.1 mph 35.7 mph N/A   Scattered Clouds
6:15 PM 58.8 °F 14.9 °F 18% 29.66 in 10.0 mi NW 34.5 mph 43.7 mph N/A   Scattered Clouds
6:55 PM 57.2 °F 14.0 °F 18% 29.67 in 10.0 mi NW 33.4 mph 39.1 mph N/A   Clear
7:15 PM 56.3 °F 14.4 °F 19% 29.67 in 10.0 mi NW 24.2 mph 34.5 mph N/A   Clear
7:35 PM 55.2 °F 15.3 °F 21% 29.68 in 10.0 mi NW 19.6 mph 27.6 mph N/A   Clear
7:55 PM 54.3 °F 16.2 °F 22% 29.68 in 10.0 mi NW 16.1 mph - N/A   Clear
8:15 PM 53.2 °F 16.7 °F 24% 29.69 in 10.0 mi WNW 12.7 mph 20.7 mph N/A   Clear
8:35 PM 49.1 °F 18.0 °F 29% 29.70 in 10.0 mi West 10.4 mph - N/A   Clear
8:55 PM 47.5 °F 18.5 °F 32% 29.70 in 10.0 mi West 10.4 mph - N/A   Clear
9:15 PM 47.7 °F 19.6 °F 33% 29.70 in 10.0 mi West 11.5 mph - N/A   Scattered Clouds
9:35 PM 49.1 °F 20.7 °F 33% 29.70 in 10.0 mi West 12.7 mph - N/A   Scattered Clouds
9:55 PM 49.6 °F 20.8 °F 32% 29.70 in 10.0 mi WNW 15.0 mph - N/A   Clear
10:15 PM 48.6 °F 21.0 °F 34% 29.70 in 10.0 mi WNW 13.8 mph - N/A   Clear
10:35 PM 48.4 °F 21.0 °F 34% 29.70 in 10.0 mi WNW 15.0 mph 20.7 mph N/A   Clear
10:55 PM 47.7 °F 21.2 °F 35% 29.70 in 10.0 mi West 13.8 mph - N/A   Clear
11:15 PM 49.1 °F 20.5 °F 32% 29.70 in 10.0 mi WNW 18.4 mph 28.8 mph N/A   Clear
11:35 PM 48.4 °F 20.7 °F 33% 29.70 in 10.0 mi WNW 12.7 mph 16.1 mph N/A   Clear
11:55 PM 47.3 °F 20.8 °F 35% 29.70 in 10.0 mi WNW 13.8 mph - N/A   Clear